Total_Precipitation_Accumulation
2.04 2.10 2.05 2.04 2.02 1.92 1.90 2.07 2.19 2.03 1.86 1.68 1.54 1.47 1.49 1.40 1.49 1.32 1.27 1.20 1.04 0.99 1.01 0.98 1.12 1.45 1.67 1.85 2.02 2.04 2.17 2.27 2.36 2.50 2.47 2.34 2.31 2.15
2.04 2.15 2.17 2.16 2.17 2.10 1.98 1.96 1.93 1.97 1.89 1.67 1.49 1.41 1.53 1.39 1.50 1.31 1.25 1.40 1.20 1.12 1.04 0.93 0.91 0.99 1.12 1.32 1.56 1.66 1.69 1.74 1.83 2.09 2.29 2.29 2.21 2.03
1.83 1.93 2.06 2.15 2.26 2.28 2.27 2.15 2.01 1.97 1.88 1.74 1.55 1.44 1.58 1.59 1.51 1.44 1.32 1.25 1.25 1.23 1.10 1.05 0.98 0.88 0.93 1.04 1.25 1.39 1.46 1.33 1.25 1.41 1.66 1.77 1.97 2.00
1.71 1.67 1.75 1.85 2.00 2.15 2.24 2.18 2.17 2.06 1.96 1.96 1.80 1.56 1.47 1.53 1.58 1.65 1.54 1.31 1.27 1.36 1.30 1.19 1.11 0.97 0.87 0.91 1.01 1.07 1.12 1.13 1.03 0.99 1.11 1.22 1.32 1.51
1.49 1.45 1.46 1.54 1.69 1.84 1.94 2.01 2.12 2.14 2.14 2.06 1.99 1.81 1.57 1.58 1.64 1.65 1.67 1.72 1.49 1.40 1.40 1.35 1.26 1.16 1.07 0.98 0.94 0.95 0.93 0.94 0.94 0.87 0.85 0.98 1.03 1.17
1.17 1.18 1.21 1.26 1.36 1.51 1.66 1.87 2.05 2.14 2.20 2.18 2.08 1.87 1.70 1.67 1.65 1.66 1.75 1.82 1.80 1.57 1.45 1.38 1.42 1.37 1.21 1.10 1.03 1.00 1.00 0.95 0.95 0.94 0.86 0.82 0.86 0.89
0.95 0.85 0.87 0.95 0.99 1.09 1.13 1.42 1.67 1.89 2.01 2.07 2.04 1.90 1.70 1.59 1.46 1.49 1.63 1.81 1.89 1.85 1.75 1.47 1.40 1.36 1.30 1.25 1.15 1.08 1.03 1.06 1.03 1.01 1.01 0.94 0.94 0.92
0.83 0.75 0.73 0.78 0.72 0.69 0.72 0.95 1.25 1.44 1.62 1.80 1.86 1.74 1.60 1.52 1.56 1.55 1.55 1.62 1.65 1.59 1.58 1.59 1.51 1.43 1.35 1.29 1.29 1.26 1.18 1.14 1.18 1.13 1.12 1.09 1.06 1.11
0.86 0.87 0.78 0.74 0.83 0.74 0.68 0.75 0.83 0.95 1.11 1.38 1.61 1.60 1.69 1.62 1.52 1.46 1.47 1.50 1.51 1.56 1.57 1.57 1.48 1.40 1.30 1.27 1.39 1.31 1.31 1.27 1.28 1.32 1.23 1.23 1.20 1.19
0.91 0.98 0.99 0.93 0.92 0.99 0.92 0.93 0.89 0.83 0.90 0.82 1.03 1.40 1.55 1.61 1.57 1.59 1.68 1.61 1.48 1.51 1.53 1.55 1.48 1.38 1.25 1.17 1.27 1.18 1.12 1.12 1.20 1.37 1.45 1.42 1.43 1.40
0.83 0.94 0.99 0.94 1.00 1.06 1.16 1.22 1.15 1.00 1.11 1.11 1.02 1.13 1.27 1.33 1.44 1.54 1.61 1.54 1.49 1.41 1.29 1.26 1.23 1.27 1.31 1.23 1.19 1.22 1.13 1.09 1.07 1.09 1.19 1.25 1.36 1.50
0.86 0.92 1.06 0.99 0.97 0.95 1.02 1.16 1.15 1.02 0.89 0.92 0.89 0.79 0.73 0.84 1.04 1.21 1.50 1.62 1.57 1.46 1.27 1.20 1.23 1.22 1.25 1.18 1.08 1.10 1.09 1.16 1.15 1.09 1.11 1.18 1.25 1.30
0.97 1.02 1.00 1.09 0.92 0.88 0.89 0.90 1.00 0.98 0.96 1.00 1.07 0.96 0.84 0.79 0.83 0.92 1.14 1.37 1.51 1.43 1.29 1.16 1.21 1.24 1.16 1.03 0.98 1.00 1.00 0.99 1.04 1.10 1.14 1.24 1.29 1.22
0.86 0.87 0.85 0.94 0.79 0.70 0.65 0.72 0.79 0.83 0.91 1.04 1.03 0.99 0.98 0.92 0.91 0.94 1.00 1.11 1.21 1.28 1.29 1.26 1.22 1.18 1.16 1.02 0.96 0.97 0.96 0.94 0.92 0.96 1.00 1.24 1.39 1.41
0.58 0.68 0.71 0.69 0.64 0.58 0.62 0.66 0.67 0.69 0.80 0.89 0.91 0.88 0.88 0.92 0.93 0.94 0.97 1.01 1.01 0.96 0.97 1.06 1.16 1.19 1.20 1.12 0.99 0.97 0.97 0.92 0.85 0.86 0.93 1.00 1.08 1.24
0.49 0.52 0.54 0.52 0.53 0.55 0.58 0.61 0.67 0.70 0.74 0.77 0.78 0.81 0.82 0.89 0.95 0.93 0.94 1.01 1.08 1.02 0.97 1.02 1.10 1.21 1.23 1.15 1.10 1.04 1.01 0.96 0.87 0.84 0.85 0.92 1.01 1.11
0.58 0.54 0.52 0.52 0.53 0.59 0.62 0.61 0.64 0.69 0.68 0.67 0.70 0.72 0.72 0.78 0.83 0.85 0.88 0.93 0.97 0.93 0.95 1.02 1.09 1.15 1.17 1.18 1.20 1.12 1.10 1.09 1.05 1.01 0.98 0.94 0.95 1.02
0.57 0.65 0.68 0.74 0.75 0.74 0.72 0.64 0.59 0.59 0.65 0.70 0.71 0.71 0.72 0.71 0.76 0.80 0.83 0.91 0.94 0.87 0.82 0.87 0.99 1.10 1.11 1.03 0.96 0.96 1.00 1.01 1.07 1.13 1.08 1.03 0.98 0.99
0.54 0.71 0.73 0.71 0.68 0.66 0.63 0.56 0.51 0.48 0.50 0.60 0.70 0.77 0.78 0.78 0.81 0.85 0.85 0.84 0.84 0.85 0.80 0.77 0.82 0.95 1.01 0.89 0.79 0.77 0.80 0.85 0.94 0.99 1.02 0.97 0.91 0.95
0.52 0.63 0.65 0.64 0.56 0.50 0.44 0.38 0.38 0.37 0.37 0.42 0.48 0.58 0.73 0.84 0.92 0.95 0.97 0.99 0.98 0.95 0.90 0.81 0.74 0.76 0.84 0.85 0.76 0.66 0.66 0.73 0.84 0.88 0.88 0.90 0.91 0.97
0.33 0.36 0.37 0.39 0.38 0.34 0.31 0.31 0.32 0.32 0.33 0.35 0.39 0.44 0.54 0.70 0.87 0.98 1.00 1.05 1.05 1.04 1.03 0.95 0.91 0.96 0.88 0.90 0.88 0.69 0.60 0.64 0.73 0.76 0.80 0.88 0.91 0.88
0.25 0.27 0.28 0.27 0.27 0.27 0.27 0.29 0.32 0.33 0.32 0.35 0.41 0.47 0.58 0.64 0.70 0.81 0.95 0.99 0.92 0.88 0.89 0.93 0.97 0.99 0.94 0.99 0.95 0.81 0.71 0.65 0.70 0.78 0.81 0.85 0.87 0.87
0.27 0.29 0.31 0.31 0.30 0.34 0.34 0.34 0.34 0.36 0.35 0.36 0.40 0.47 0.56 0.67 0.73 0.76 0.79 0.82 0.86 0.88 0.89 0.90 0.90 0.91 0.93 0.98 1.06 1.04 0.91 0.80 0.76 0.79 0.81 0.89 0.86 0.76